Date String (YYYY-MM-DD hh:mm:ss) UTC,Instrument flags,absolute air pressure of the measurement (hPa),sample flow rate (lpm),inlet stack bypass flow (lpm),air temperature of the measurement (°C),ambient temperature measured by the external sensor (°C),aerosol sample conditioner tube jacket temperature (°C),OPC LED temperature (°C),internal box temperature (°C),relative humidity of the measurement (%),span deviation,mass concentration of particles derived from Lorenz-Mie calculation of OPC scattering (μg/m³),mass concentration of particles derived from Lorenz-Mie calculation of OPC scattering (μg/m³),mass concentration of particles derived from Lorenz-Mie calculation of OPC scattering (μg/m³)
DateTimeUTC,F1_M11,P_M11,Q1_M11,Q2_M11,T1_M11,T2_M11,T3_M11,T4_M11,T5_M11,U1_M11,ZSPAN_M11,X0_M11,X2_M11,X1_M11
2023-08-21 10:00:00,SystemResetWarning,0834.3,5.01,000.00,028.5,027.5,000.0,036.9,030.3,20.2,0002.1,0013.94,0006.82,0005.70
2023-08-21 10:01:00,SystemResetWarning,0834.3,5.00,000.00,028.6,027.5,000.0,037.0,030.3,20.0,0002.2,0014.49,0006.83,0005.73
2023-08-21 10:02:00,SystemResetWarning,0834.3,4.98,000.00,028.6,026.6,000.0,036.9,030.2,20.2,0002.2,0014.81,0006.81,0005.73
2023-08-21 10:03:00,SystemResetWarning,0834.5,5.02,000.00,028.5,024.9,000.0,036.8,029.9,20.0,0002.2,0014.50,0006.83,0005.76
2023-08-21 10:04:00,SystemResetWarning,0834.6,5.01,000.00,028.4,024.4,000.0,036.8,029.7,19.7,0002.2,0013.94,0006.89,0005.80
2023-08-21 10:05:00,SystemResetWarning,0834.4,4.99,000.00,028.3,024.6,000.0,036.8,029.5,19.9,0002.7,0013.12,0006.88,0005.81
2023-08-21 10:06:00,SystemResetWarning,0834.3,5.00,000.00,028.2,025.0,000.0,036.8,029.6,19.6,0002.5,0013.18,0006.88,0005.82
2023-08-21 10:07:00,SystemResetWarning,0834.5,5.01,000.00,028.2,025.4,000.0,036.8,029.7,20.3,0001.8,0014.15,0006.91,0005.83
2023-08-21 10:08:00,SystemResetWarning,0834.3,4.99,000.00,028.2,025.7,000.0,036.8,029.8,19.9,0001.3,0014.27,0006.90,0005.83
2023-08-21 10:09:00,SystemResetWarning,0834.3,4.99,000.00,028.3,026.1,000.0,036.8,029.9,18.9,0000.9,0014.20,0006.86,0005.85
2023-08-21 10:10:00,SystemResetWarning,0834.3,5.00,000.00,028.3,026.3,000.0,036.8,029.9,19.3,0000.7,0014.35,0006.86,0005.89
2023-08-21 10:11:00,SystemResetWarning,0834.3,5.01,000.00,028.3,026.6,000.0,036.8,030.0,19.8,0000.7,0014.84,0006.86,0005.91
2023-08-21 10:12:00,SystemResetWarning,0834.4,5.01,000.00,028.3,026.8,000.0,036.8,030.0,19.5,0000.9,0015.05,0006.88,0005.91
2023-08-21 10:13:00,SystemResetWarning,0834.4,5.00,000.00,028.4,026.9,000.0,036.8,030.1,19.3,0000.7,0015.56,0006.93,0005.91
2023-08-21 10:14:00,SystemResetWarning,0834.3,5.00,000.00,028.4,027.1,000.0,036.9,030.1,19.2,0000.7,0016.09,0006.94,0005.92
2023-08-21 10:15:00,SystemResetWarning,0834.4,4.99,000.00,028.4,027.2,000.0,036.9,030.1,19.2,0000.7,0016.60,0006.99,0005.93
2023-08-21 10:16:00,SystemResetWarning,0834.4,5.00,000.00,028.5,027.3,000.0,036.9,030.2,19.1,0000.9,0016.71,0007.01,0005.92
2023-08-21 10:17:00,SystemResetWarning,0834.4,5.00,000.00,028.5,027.4,000.0,036.9,030.2,19.1,0001.3,0016.38,0006.96,0005.91
2023-08-21 10:18:00,SystemResetWarning,0834.4,5.00,000.00,028.5,027.4,000.0,036.9,030.3,19.2,0001.6,0015.51,0006.93,0005.90
2023-08-21 10:19:00,SystemResetWarning,0834.4,5.01,000.00,028.6,027.5,000.0,037.0,030.3,19.0,0001.9,0016.00,0006.96,0005.92
2023-08-21 10:20:00,SystemResetWarning,0834.4,5.00,000.00,028.6,027.5,000.0,037.0,030.3,19.0,0002.6,0016.24,0006.97,0005.89
2023-08-21 10:21:00,SystemResetWarning,0834.3,4.99,000.00,028.6,025.9,000.0,036.9,030.1,19.2,0002.7,0015.99,0006.93,0005.84
2023-08-21 10:22:00,SystemResetWarning,0834.3,5.01,000.00,028.5,023.9,000.0,036.8,029.8,19.3,0002.5,0015.65,0006.89,0005.79
2023-08-21 10:23:00,SystemResetWarning,0834.3,5.00,000.00,028.4,023.4,000.0,036.7,029.5,19.6,0002.4,0015.24,0006.84,0005.78
2023-08-21 10:24:00,SystemResetWarning,0834.3,5.01,000.00,028.2,023.7,000.0,036.7,029.4,19.9,0002.6,0014.23,0006.78,0005.76
2023-08-21 10:25:00,SystemResetWarning,0834.4,5.01,000.00,028.2,024.2,000.0,036.7,029.4,20.2,0002.3,0014.01,0006.74,0005.71
2023-08-21 10:26:00,SystemResetWarning,0834.3,5.00,000.00,028.1,024.7,000.0,036.7,029.5,20.2,0002.6,0013.85,0006.63,0005.67
2023-08-21 10:27:00,SystemResetWarning,0834.4,5.01,000.00,028.1,025.1,000.0,036.7,029.6,20.1,0002.4,0013.92,0006.60,0005.65
2023-08-21 10:28:00,SystemResetWarning,0834.4,5.00,000.00,028.1,025.5,000.0,036.7,029.7,20.0,0002.1,0013.93,0006.65,0005.65
2023-08-21 10:29:00,SystemResetWarning,0834.4,5.00,000.00,028.1,025.9,000.0,036.7,029.7,20.1,0002.0,0014.54,0006.72,0005.66
2023-08-21 10:30:00,SystemResetWarning,0834.4,5.00,000.00,028.1,026.1,000.0,036.7,029.8,20.3,0001.6,0015.12,0006.76,0005.66
2023-08-21 10:31:00,SystemResetWarning,0834.4,5.01,000.00,028.2,026.4,000.0,036.7,029.8,20.2,0001.5,0016.68,0006.79,0005.68
2023-08-21 10:32:00,SystemResetWarning,0834.3,5.00,000.00,028.2,026.6,000.0,036.7,029.9,20.1,0001.6,0017.18,0006.81,0005.72
2023-08-21 10:33:00,SystemResetWarning,0834.5,5.00,000.00,028.2,026.8,000.0,036.7,030.0,20.6,0001.6,0016.85,0006.80,0005.76
2023-08-21 10:34:00,SystemResetWarning,0834.5,5.00,000.00,028.3,026.9,000.0,036.8,030.0,20.6,0001.3,0016.90,0006.78,0005.74
2023-08-21 10:35:00,SystemResetWarning,0834.5,4.99,000.00,028.3,027.0,000.0,036.8,030.0,20.6,0001.2,0017.52,0006.77,0005.74
2023-08-21 10:36:00,SystemResetWarning,0834.5,4.99,000.00,028.3,027.1,000.0,036.8,030.1,20.6,0001.7,0017.67,0006.82,0005.78
2023-08-21 10:37:00,SystemResetWarning,0834.5,4.99,000.00,028.4,027.2,000.0,036.8,030.1,20.7,0001.5,0017.67,0006.90,0005.81
2023-08-21 10:38:00,SystemResetWarning,0834.5,5.00,000.00,028.4,027.3,000.0,036.8,030.2,20.5,0001.4,0018.47,0006.92,0005.81
2023-08-21 10:39:00,SystemResetWarning,0834.5,5.00,000.00,028.5,027.4,000.0,036.9,030.2,20.4,0001.5,0018.44,0006.86,0005.76
2023-08-21 10:40:00,SystemResetWarning,0834.5,5.00,000.00,028.5,027.5,000.0,036.9,030.2,20.4,0001.4,0018.13,0006.80,0005.73
2023-08-21 10:41:00,SystemResetWarning,0834.6,5.00,000.00,028.5,027.5,000.0,036.9,030.3,20.3,0001.7,0016.96,0006.69,0005.69
2023-08-21 10:42:00,SystemResetWarning,0834.5,5.00,000.00,028.6,027.6,000.0,036.9,030.3,20.3,0002.0,0015.27,0006.63,0005.65
2023-08-21 10:43:00,SystemResetWarning,0834.5,5.00,000.00,028.6,027.6,000.0,037.0,030.3,20.2,0001.7,0014.67,0006.58,0005.62
2023-08-21 10:44:00,SystemResetWarning,0834.7,5.00,000.00,028.6,027.7,000.0,037.0,030.4,20.0,0001.9,0014.80,0006.55,0005.57
2023-08-21 10:45:00,SystemResetWarning,0835.1,4.99,000.00,028.7,027.1,000.0,037.0,030.3,20.0,0002.5,0014.96,0006.51,0005.54
2023-08-21 10:46:00,SystemResetWarning,0835.1,5.00,000.00,028.6,024.9,000.0,036.9,030.0,20.0,0002.4,0014.71,0006.49,0005.53
2023-08-21 10:47:00,SystemResetWarning,0835.0,5.01,000.00,028.5,023.6,000.0,036.8,029.7,20.1,0001.9,0014.43,0006.43,0005.49
2023-08-21 10:48:00,SystemResetWarning,0834.7,5.01,000.00,028.4,023.6,000.0,036.7,029.4,19.9,0001.5,0014.13,0006.34,0005.45
2023-08-21 10:49:00,SystemResetWarning,0834.5,5.00,000.00,028.2,023.9,000.0,036.7,029.3,20.1,0001.2,0013.59,0006.29,0005.43
2023-08-21 10:50:00,SystemResetWarning,0834.5,5.00,000.00,028.1,024.4,000.0,036.8,029.4,20.0,0001.0,0013.54,0006.29,0005.45
2023-08-21 10:51:00,SystemResetWarning,0834.7,5.00,000.00,028.1,024.9,000.0,036.7,029.5,20.2,0000.9,0013.16,0006.28,0005.45
2023-08-21 10:52:00,SystemResetWarning,0834.9,5.00,000.00,028.1,025.3,000.0,036.7,029.6,19.7,0001.3,0013.08,0006.34,0005.45
2023-08-21 10:53:00,SystemResetWarning,0834.6,5.00,000.00,028.1,025.7,000.0,036.7,029.7,19.8,0000.9,0013.07,0006.37,0005.47
2023-08-21 10:54:00,SystemResetWarning,0834.6,5.00,000.00,028.2,026.0,000.0,036.7,029.8,20.1,0001.0,0013.12,0006.40,0005.48
2023-08-21 10:55:00,SystemResetWarning,0834.6,5.00,000.00,028.2,026.3,000.0,036.7,029.8,20.5,0000.9,0013.32,0006.47,0005.52
2023-08-21 10:56:00,SystemResetWarning,0834.9,5.00,000.00,028.2,026.5,000.0,036.8,029.9,20.5,0000.6,0013.12,0006.55,0005.56
2023-08-21 10:57:00,SystemResetWarning,0835.0,5.00,000.00,028.2,026.7,000.0,036.8,029.9,20.7,0000.8,0013.09,0006.65,0005.60
2023-08-21 10:58:00,SystemResetWarning,0834.9,5.00,000.00,028.3,026.8,000.0,036.8,030.0,20.9,0000.9,0012.94,0006.70,0005.63
2023-08-21 10:59:00,SystemResetWarning,0834.6,5.01,000.00,028.3,027.0,000.0,036.8,030.0,20.9,0001.7,0012.93,0006.73,0005.66
